Change the Weather History Date:

Friday, January 25, 2013

  Actual Average (EGSC) Record (EGSC)
Temperature  
Mean Temperature 26 °F -  
Max Temperature 34 °F 44 °F 53 °F (1999)
Min Temperature 19 °F 36 °F 19 °F (2013)
Degree Days  
Heating Degree Days 39    
Moisture  
Dew Point 26 °F    
Average Humidity 95    
Maximum Humidity 100    
Minimum Humidity 74    
Precipitation  
Precipitation 0.00 in - - ()
Sea Level Pressure  
Sea Level Pressure 29.99 in    
Wind  
Wind Speed 4 mph ()    
Max Wind Speed 17 mph    
Max Gust Speed 24 mph    
Visibility 3.9 miles    
Events Fog    
Averages and records for this station are not official NWS values.
T = Trace of Precipitation, MM = Missing Value Source: Averaged Metar Reports

Daily Weather History Graph

Daily Weather History Graph

Search for Another Location

Airport or City:

Trip Planner

Search our weather history database for the weather conditions in past years. The results will help you decide how hot, cold, wet, or windy it might be!

Date:

Astronomy

Jan. 25, 2013 Rise Set
Actual Time 7:49 AM GMT 4:32 PM GMT
Civil Twilight 7:11 AM GMT 5:10 PM GMT
Nautical Twilight 6:29 AM GMT 5:51 PM GMT
Astronomical Twilight 5:49 AM GMT 6:31 PM GMT
Moon 3:14 PM GMT (1/25) 6:21 AM GMT (1/25)
Length of Visible Light 9h 58m
Length of Day
8h 42m
Waxing Gibbous, 97% of the Moon is Illuminated
Jan 25
Waxing Gibbous
Jan 27
Full
Feb 3
Last Quarter
Feb 10
New
Feb 17
First Quarter

Hourly Weather History & Observations

Time (GMT) Temp. Windchill Dew Point Humidity Pressure Visibility Wind Dir Wind Speed Gust Speed Precip Events Conditions
12:03 AM 26.6 °F - 26.6 °F 100% 30.12 in 1.0 mi South 2.3 mph - N/A   Clear
12:05 AM 26.6 °F - 26.6 °F 100% 30.12 in 1.2 mi South 2.3 mph - N/A   Clear
12:07 AM 26.6 °F - 26.6 °F 100% 30.12 in 1.5 mi SSE 2.3 mph - N/A   Clear
12:08 AM 26.6 °F - 26.6 °F 100% 30.12 in 1.7 mi SSE 2.3 mph - N/A   Clear
12:09 AM 26.6 °F - 26.6 °F 100% 30.12 in 2.5 mi SSE 2.3 mph - N/A   Clear
12:10 AM 26.6 °F - 26.6 °F 100% 30.12 in 3.1 mi SSE 2.3 mph - N/A   Clear
12:16 AM 26.6 °F - 26.6 °F 100% 30.12 in 5.0 mi South 2.3 mph - N/A   Clear
12:24 AM 26.6 °F - 26.6 °F 100% 30.12 in 5.0 mi SSW 2.3 mph - N/A   Clear
12:26 AM 26.6 °F - 26.6 °F 100% 30.13 in 2.5 mi SSW 2.3 mph - N/A   Clear
12:27 AM 26.6 °F - 26.6 °F 100% 30.13 in - SSW 2.3 mph - N/A   Clear
12:28 AM 26.6 °F - 26.6 °F 100% 30.12 in 1.5 mi SSW 2.3 mph - N/A   Clear
12:29 AM 26.6 °F - 26.6 °F 100% 30.13 in 1.2 mi SSW 2.3 mph - N/A   Clear
12:30 AM 26.6 °F - 24.8 °F 93% 30.12 in 1.0 mi SSW 2.3 mph - N/A   Clear
12:33 AM 24.8 °F - 24.8 °F 100% 30.12 in 0.7 mi SE 1.2 mph - N/A   Clear
12:34 AM 24.8 °F - 24.8 °F 100% 30.12 in 0.5 mi SE 1.2 mph - N/A Fog Light Freezing Fog
12:50 AM 24.8 °F - 24.8 °F 100% 30.12 in 0.7 mi South 2.3 mph - N/A   Clear
12:51 AM 24.8 °F - 24.8 °F 100% 30.12 in 0.7 mi South 2.3 mph - N/A   Clear
12:53 AM 24.8 °F - 24.8 °F 100% 30.12 in 0.7 mi SSE 1.2 mph - N/A   Clear
12:54 AM 24.8 °F - 24.8 °F 100% 30.12 in 1.0 mi SE 1.2 mph - N/A   Clear
12:56 AM 24.8 °F - 24.8 °F 100% 30.12 in 1.2 mi ESE 1.2 mph - N/A   Clear
12:58 AM 25.5 °F - 25.3 °F 99% 30.13 in 1.0 mi ENE 1.2 mph - N/A   Clear
1:00 AM 24.8 °F - 24.8 °F 100% 30.12 in 0.7 mi Calm Calm - N/A   Clear
1:01 AM 24.8 °F - 24.8 °F 100% 30.12 in 0.7 mi Calm Calm - N/A   Clear
1:02 AM 24.8 °F - 24.8 °F 100% 30.12 in 0.7 mi SSE 1.2 mph - N/A   Clear
1:03 AM 24.8 °F - 24.8 °F 100% 30.12 in 0.5 mi South 1.2 mph - N/A Fog Light Freezing Fog
1:17 AM 23.0 °F - 23.0 °F 100% 30.11 in 0.2 mi SE 2.3 mph - N/A Fog Light Freezing Fog
1:38 AM 24.8 °F - 23.0 °F 93% 30.11 in 0.5 mi East 2.3 mph - N/A Fog Light Freezing Fog
1:41 AM 24.8 °F - 23.0 °F 93% 30.11 in 0.5 mi NE 1.2 mph - N/A Fog Light Freezing Fog
1:42 AM 24.8 °F - 23.0 °F 93% 30.11 in 0.7 mi Calm Calm - N/A   Clear
1:43 AM 23.0 °F - 23.0 °F 100% 30.11 in 0.7 mi Calm Calm - N/A   Clear
1:44 AM 23.0 °F - 23.0 °F 100% 30.11 in 1.0 mi Calm Calm - N/A   Clear
1:45 AM 23.0 °F - 23.0 °F 100% 30.11 in 1.5 mi Calm Calm - N/A   Clear
1:46 AM 23.0 °F - 23.0 °F 100% 30.11 in - SE 1.2 mph - N/A   Clear
1:47 AM 23.0 °F - 23.0 °F 100% 30.11 in 3.1 mi SSE 1.2 mph - N/A   Clear
1:55 AM 23.0 °F 18.4 °F 23.0 °F 100% 30.11 in - SE 3.5 mph - N/A   Clear
1:56 AM 23.0 °F 18.4 °F 23.0 °F 100% 30.11 in 1.5 mi SE 3.5 mph - N/A   Clear
1:57 AM 23.0 °F 18.4 °F 23.0 °F 100% 30.11 in 1.2 mi SE 3.5 mph - N/A   Clear
1:58 AM 23.0 °F 18.4 °F 23.0 °F 100% 30.12 in 1.2 mi SSE 3.5 mph - N/A   Clear
2:05 AM 23.0 °F 18.4 °F 23.0 °F 100% 30.11 in 1.7 mi SSE 3.5 mph - N/A   Clear
2:06 AM 23.0 °F 18.4 °F 23.0 °F 100% 30.11 in 2.5 mi SE 3.5 mph - N/A   Clear
2:07 AM 24.8 °F 20.5 °F 23.0 °F 93% 30.11 in 3.1 mi SE 3.5 mph - N/A   Clear
2:09 AM 24.8 °F 20.5 °F 23.0 °F 93% 30.11 in 5.0 mi SE 3.5 mph - N/A   Clear
2:58 AM 23.4 °F 18.9 °F 23.0 °F 99% 30.12 in 6.2 mi SSE 3.5 mph - N/A   Clear
3:13 AM 23.0 °F - 21.2 °F 93% 30.10 in 5.0 mi Calm Calm - N/A   Clear
3:34 AM 21.2 °F - 21.2 °F 100% 30.10 in 5.0 mi SSW 2.3 mph - N/A   Clear
3:58 AM 20.7 °F - 19.8 °F 96% 30.12 in 5.6 mi SSE 2.3 mph - N/A   Clear
4:09 AM 21.2 °F - 21.2 °F 100% 30.10 in 3.7 mi SE 2.3 mph - N/A   Clear
4:18 AM 21.2 °F 16.4 °F 21.2 °F 100% 30.09 in 5.0 mi SSE 3.5 mph - N/A   Clear
4:58 AM 20.8 °F - 19.9 °F 96% 30.09 in 6.2 mi SSE 2.3 mph - N/A   Clear
5:58 AM 19.8 °F 13.2 °F 18.9 °F 96% 30.09 in 6.2 mi SSE 4.6 mph - N/A   Clear
6:58 AM 19.8 °F 14.7 °F 18.9 °F 96% 30.10 in 5.6 mi ESE 3.5 mph - N/A   Clear
7:58 AM 20.1 °F - 19.2 °F 96% 30.09 in 6.2 mi SE 1.2 mph - N/A   Clear
8:58 AM 21.6 °F 15.3 °F 20.8 °F 97% 30.07 in 6.2 mi SE 4.6 mph - N/A   Clear
9:26 AM 24.8 °F 16.9 °F 24.8 °F 100% 30.06 in 6.2 mi SSE 6.9 mph - N/A   Mostly Cloudy
9:58 AM 26.8 °F 19.3 °F 26.6 °F 99% 30.06 in 6.2 mi SSE 6.9 mph - N/A   Overcast
10:58 AM 30.6 °F 23.8 °F 26.8 °F 86% 30.04 in 6.2 mi SE 6.9 mph - N/A   Overcast
11:58 AM 33.3 °F 24.6 °F 25.7 °F 74% 30.01 in 6.2 mi SSE 11.5 mph - N/A   Overcast
12:58 PM 33.4 °F 24.3 °F 26.2 °F 75% 29.99 in 6.2 mi SSE 12.7 mph - N/A   Overcast
1:58 PM 33.8 °F 25.3 °F 27.1 °F 77% 29.96 in 6.2 mi South 11.5 mph - N/A   Overcast
2:18 PM 33.8 °F 25.8 °F 26.6 °F 75% 29.93 in 6.2 mi South 10.4 mph - N/A   Overcast
2:51 PM 33.8 °F 25.3 °F 28.4 °F 81% 29.90 in 6.2 mi SSE 11.5 mph - N/A   Overcast
2:58 PM 33.6 °F 25.0 °F 28.0 °F 80% 29.91 in 6.2 mi SSE 11.5 mph - N/A   Overcast
3:41 PM 32.0 °F 23.6 °F 30.2 °F 93% 29.87 in 6.2 mi SSE 10.4 mph - N/A   Mostly Cloudy
3:58 PM 32.7 °F 23.4 °F 29.7 °F 88% 29.88 in 6.2 mi SSE 12.7 mph - N/A   Scattered Clouds
4:58 PM 31.3 °F 20.7 °F 26.2 °F 82% 29.84 in 6.2 mi SSE 15.0 mph - N/A   Overcast
5:58 PM 30.2 °F 19.3 °F 26.6 °F 86% 29.81 in 6.2 mi SSE 15.0 mph 21.9 mph N/A   Scattered Clouds
6:58 PM 30.2 °F 18.9 °F 26.8 °F 87% 29.76 in 6.2 mi SSE 16.1 mph - N/A   Mostly Cloudy
7:24 PM 32.0 °F 21.6 °F 26.6 °F 80% 29.74 in 6.2 mi SSE 15.0 mph 24.2 mph N/A   Mostly Cloudy
7:58 PM 30.9 °F 20.2 °F 27.5 °F 87% 29.73 in 6.2 mi SSE 15.0 mph - N/A   Mostly Cloudy
8:01 PM 32.0 °F 21.6 °F 28.4 °F 87% 29.71 in 6.2 mi South 15.0 mph - N/A   Mostly Cloudy
8:03 PM 32.0 °F 22.5 °F 28.4 °F 87% 29.71 in 6.2 mi SSE 12.7 mph - N/A   Mostly Cloudy
8:33 PM 32.0 °F 22.1 °F 28.4 °F 87% 29.69 in 6.2 mi SSE 13.8 mph - N/A   Mostly Cloudy
8:34 PM 32.0 °F 22.5 °F 28.4 °F 87% 29.69 in 6.2 mi SSE 12.7 mph - N/A   Mostly Cloudy
8:58 PM 31.5 °F 20.1 °F 28.4 °F 88% 29.68 in 6.2 mi SSE 17.3 mph 24.2 mph N/A   Overcast
9:32 PM 32.0 °F 21.2 °F 30.2 °F 93% 29.65 in 6.2 mi SSE 16.1 mph - N/A   Overcast
9:58 PM 32.5 °F 21.9 °F 30.0 °F 90% 29.64 in 6.2 mi SSE 16.1 mph - N/A   Overcast
10:12 PM 32.0 °F 22.5 °F 32.0 °F 100% 29.64 in 6.2 mi SSE 12.7 mph - N/A   Overcast
10:58 PM 33.6 °F 25.0 °F 31.8 °F 93% 29.63 in 6.2 mi SSE 11.5 mph - N/A   Overcast
11:23 PM 33.8 °F 26.4 °F 32.0 °F 93% 29.62 in 6.2 mi SSE 9.2 mph 19.6 mph N/A   Overcast
11:33 PM 33.8 °F 24.3 °F 32.0 °F 93% 29.61 in 6.2 mi SSE 13.8 mph - N/A   Overcast
11:45 PM 33.8 °F 24.3 °F 32.0 °F 93% 29.60 in 5.6 mi SSE 13.8 mph - N/A   Overcast
11:46 PM 33.8 °F 23.9 °F 32.0 °F 93% 29.60 in 5.6 mi SSE 15.0 mph - N/A   Overcast
11:52 PM 33.8 °F 24.3 °F 32.0 °F 93% 29.60 in 5.6 mi SSE 13.8 mph - N/A   Overcast
11:58 PM 34.5 °F 24.8 °F 32.7 °F 93% 29.60 in 6.2 mi SSE 15.0 mph - 0.00 in   Mostly Cloudy